• In Belgium
  • List of Countries
  • For 7 days
  • Water Temperature
  • Satellite Maps
  • Weather Map
  • Weather Widgets
  • user-avatar
    Login

    Hourly Weather Tynda

    Today, 23 July, Monday

    Time Temperature Precipitation Wind Pressure Humidity
    00:00 +13°C° 0.1 mm 1 mps 699 mmHg 96%
    01:00 +12°C° 0.1 mm 1 mps 699 mmHg 95%
    02:00 +12°C° 0 mm 2 mps 699 mmHg 94%
    03:00 +10°C° 0.3 mm 2 mps 700 mmHg 94%
    04:00 +11°C° 0.3 mm 1 mps 700 mmHg 94%
    05:00 +11°C° 0.3 mm 1 mps 700 mmHg 94%
    06:00 +11°C° 0.2 mm 1 mps 700 mmHg 92%
    07:00 +10°C° 0.2 mm 2 mps 701 mmHg 91%
    08:00 +12°C° 0 mm 1 mps 701 mmHg 87%
    09:00 +12°C° 0.6 mm 1 mps 701 mmHg 87%
    10:00 +13°C° 0.6 mm 1 mps 701 mmHg 86%
    11:00 +13°C° 0.6 mm 1 mps 701 mmHg 86%
    12:00 +13°C° 0.3 mm 1 mps 701 mmHg 87%
    13:00 +13°C° 0.3 mm 1 mps 701 mmHg 89%
    14:00 +13°C° 0.3 mm 1 mps 701 mmHg 91%
    15:00 +13°C° 0 mm 1 mps 701 mmHg 90%
    16:00 +13°C° 0 mm 1 mps 701 mmHg 90%
    17:00 +14°C° 0 mm 1 mps 701 mmHg 89%
    18:00 +13°C° 0 mm 1 mps 701 mmHg 91%
    19:00 +13°C° 0 mm 1 mps 701 mmHg 92%
    20:00 +12°C° 0 mm 1 mps 701 mmHg 93%
    21:00 +12°C° 0 mm 1 mps 702 mmHg 93%
    22:00 +11°C° 0 mm 1 mps 702 mmHg 94%
    23:00 +11°C° 0 mm 1 mps 702 mmHg 94%

    Tomorrow, 24 July, Tuesday

    Time Temperature Precipitation Wind Pressure Humidity
    00:00 +10°C° 0 mm 1 mps 702 mmHg 94%
    01:00 +10°C° 0 mm 1 mps 702 mmHg 95%
    02:00 +9°C° 0 mm 1 mps 702 mmHg 95%
    03:00 +9°C° 0 mm 1 mps 702 mmHg 95%
    04:00 +10°C° 0 mm 1 mps 702 mmHg 94%
    05:00 +10°C° 0 mm 1 mps 702 mmHg 94%
    06:00 +12°C° 0 mm 1 mps 702 mmHg 86%
    07:00 +14°C° 0 mm 1 mps 702 mmHg 77%
    08:00 +16°C° 0 mm 2 mps 702 mmHg 69%
    09:00 +18°C° 0 mm 2 mps 702 mmHg 62%
    10:00 +20°C° 0 mm 2 mps 702 mmHg 56%
    11:00 +21°C° 0 mm 2 mps 702 mmHg 49%
    12:00 +23°C° 0 mm 2 mps 702 mmHg 47%
    13:00 +24°C° 0 mm 1 mps 702 mmHg 45%
    14:00 +25°C° 0 mm 1 mps 702 mmHg 43%
    15:00 +25°C° 0 mm 1 mps 702 mmHg 45%
    16:00 +24°C° 0 mm 1 mps 702 mmHg 47%
    17:00 +24°C° 0 mm 1 mps 701 mmHg 49%
    18:00 +22°C° 0 mm 1 mps 701 mmHg 58%
    19:00 +19°C° 0 mm 1 mps 701 mmHg 68%
    20:00 +15°C° 0 mm 1 mps 701 mmHg 77%
    21:00 +15°C° 0 mm 1 mps 701 mmHg 80%
    22:00 +14°C° 0 mm 1 mps 701 mmHg 82%
    23:00 +13°C° 0 mm 1 mps 701 mmHg 84%

    Day after tomorrow, 25 July, Wednesday

    Time Temperature Precipitation Wind Pressure Humidity
    00:00 +12°C° 0 mm 1 mps 701 mmHg 86%
    01:00 +12°C° 0 mm 1 mps 701 mmHg 87%
    02:00 +12°C° 0 mm 1 mps 701 mmHg 88%
    03:00 +12°C° 0 mm 1 mps 701 mmHg 87%
    04:00 +12°C° 0 mm 0 mps 702 mmHg 86%
    05:00 +12°C° 0 mm 0 mps 702 mmHg 84%
    06:00 +15°C° 0 mm 0 mps 702 mmHg 76%
    07:00 +18°C° 0 mm 0 mps 703 mmHg 67%
    08:00 +21°C° 0 mm 0 mps 703 mmHg 58%
    09:00 +25°C° 0 mm 1 mps 703 mmHg 53%
    10:00 +26°C° 0 mm 1 mps 703 mmHg 49%
    11:00 +28°C° 0 mm 1 mps 703 mmHg 44%
    12:00 +28°C° 0 mm 1 mps 703 mmHg 42%
    13:00 +29°C° 0 mm 1 mps 703 mmHg 40%
    14:00 +29°C° 0 mm 1 mps 703 mmHg 38%
    15:00 +29°C° 0 mm 1 mps 703 mmHg 41%
    16:00 +28°C° 0 mm 1 mps 702 mmHg 44%
    17:00 +28°C° 0 mm 1 mps 702 mmHg 47%
    18:00 +25°C° 0 mm 1 mps 702 mmHg 55%
    19:00 +23°C° 0 mm 1 mps 702 mmHg 63%
    20:00 +20°C° 0 mm 1 mps 702 mmHg 71%
    21:00 +19°C° 0 mm 1 mps 702 mmHg 73%
    22:00 +18°C° 0 mm 1 mps 702 mmHg 76%
    23:00 +16°C° 0 mm 1 mps 701 mmHg 78%

    26 July, Thursday

    Time Temperature Precipitation Wind Pressure Humidity
    00:00 +16°C° 0 mm 1 mps 701 mmHg 79%
    01:00 +16°C° 0 mm 1 mps 701 mmHg 80%
    02:00 +15°C° 0 mm 1 mps 701 mmHg 81%
    03:00 +15°C° 0 mm 1 mps 701 mmHg 81%
    04:00 +16°C° 0 mm 1 mps 702 mmHg 81%
    05:00 +16°C° 0 mm 1 mps 702 mmHg 80%
    06:00 +20°C° 0 mm 1 mps 702 mmHg 72%
    07:00 +21°C° 0 mm 2 mps 702 mmHg 63%
    08:00 +25°C° 0 mm 2 mps 703 mmHg 55%
    09:00 +27°C° 0 mm 3 mps 703 mmHg 50%
    10:00 +28°C° 0 mm 3 mps 703 mmHg 45%
    11:00 +30°C° 0 mm 4 mps 702 mmHg 40%
    12:00 +30°C° 0 mm 4 mps 702 mmHg 39%
    13:00 +32°C° 0 mm 4 mps 702 mmHg 38%
    14:00 +32°C° 0 mm 4 mps 702 mmHg 38%
    15:00 +32°C° 0 mm 4 mps 701 mmHg 41%
    16:00 +30°C° 0 mm 3 mps 701 mmHg 45%
    17:00 +30°C° 0 mm 3 mps 701 mmHg 49%
    18:00 +28°C° 0 mm 2 mps 701 mmHg 53%
    19:00 +25°C° 0 mm 2 mps 701 mmHg 57%
    20:00 +23°C° 0 mm 1 mps 700 mmHg 61%
    21:00 +23°C° 0 mm 2 mps 700 mmHg 62%
    22:00 +21°C° 0 mm 2 mps 700 mmHg 64%
    23:00 +20°C° 0 mm 2 mps 700 mmHg 65%

    27 July, Friday

    Time Temperature Precipitation Wind Pressure Humidity
    00:00 +20°C° 0.1 mm 2 mps 700 mmHg 67%
    01:00 +19°C° 0.1 mm 2 mps 700 mmHg 70%
    02:00 +20°C° 0.1 mm 1 mps 700 mmHg 73%
    03:00 +20°C° 0.1 mm 1 mps 699 mmHg 77%
    04:00 +20°C° 0.1 mm 1 mps 699 mmHg 81%
    05:00 +20°C° 0.1 mm 1 mps 699 mmHg 85%
    06:00 +22°C° 0 mm 1 mps 700 mmHg 81%
    07:00 +23°C° 0 mm 2 mps 700 mmHg 77%
    08:00 +25°C° 0 mm 2 mps 700 mmHg 72%
    09:00 +27°C° 0 mm 2 mps 700 mmHg 68%
    10:00 +28°C° 0 mm 3 mps 700 mmHg 64%
    11:00 +30°C° 0 mm 3 mps 700 mmHg 60%
    12:00 +30°C° 0 mm 3 mps 700 mmHg 58%
    13:00 +31°C° 0 mm 3 mps 700 mmHg 55%
    14:00 +33°C° 0 mm 4 mps 700 mmHg 53%
    15:00 +33°C° 0 mm 3 mps 700 mmHg 56%
    16:00 +33°C° 0 mm 3 mps 700 mmHg 58%
    17:00 +32°C° 0 mm 2 mps 699 mmHg 60%
    18:00 +30°C° 0 mm 2 mps 699 mmHg 65%
    19:00 +28°C° 0 mm 2 mps 699 mmHg 69%
    20:00 +27°C° 0 mm 2 mps 699 mmHg 74%
    21:00 +26°C° 0 mm 2 mps 699 mmHg 75%
    22:00 +25°C° 0 mm 2 mps 699 mmHg 77%
    23:00 +24°C° 0 mm 2 mps 699 mmHg 78%

    28 July, Saturday

    Time Temperature Precipitation Wind Pressure Humidity
    00:00 +23°C° 0 mm 1 mps 699 mmHg 81%
    01:00 +22°C° 0 mm 1 mps 699 mmHg 84%
    02:00 +22°C° 0 mm 1 mps 699 mmHg 87%
    03:00 +21°C° 0 mm 1 mps 699 mmHg 88%
    04:00 +21°C° 0 mm 1 mps 699 mmHg 90%
    05:00 +19°C° 0 mm 0 mps 699 mmHg 91%
    06:00 +22°C° 0 mm 1 mps 699 mmHg 86%
    07:00 +23°C° 0 mm 1 mps 699 mmHg 81%
    08:00 +24°C° 0 mm 1 mps 699 mmHg 77%
    09:00 +24°C° 0.1 mm 2 mps 699 mmHg 75%
    10:00 +25°C° 0.1 mm 2 mps 699 mmHg 73%
    11:00 +25°C° 0.1 mm 3 mps 699 mmHg 72%
    12:00 +25°C° 0 mm 3 mps 699 mmHg 66%
    13:00 +26°C° 0 mm 3 mps 699 mmHg 60%
    14:00 +27°C° 0 mm 3 mps 699 mmHg 54%
    15:00 +27°C° 0 mm 2 mps 699 mmHg 55%
    16:00 +27°C° 0 mm 2 mps 698 mmHg 55%
    17:00 +27°C° 0 mm 2 mps 698 mmHg 55%
    18:00 +25°C° 0 mm 2 mps 698 mmHg 61%
    19:00 +23°C° 0 mm 1 mps 698 mmHg 68%
    20:00 +21°C° 0 mm 1 mps 698 mmHg 74%
    21:00 +19°C° 0 mm 1 mps 697 mmHg 76%
    22:00 +18°C° 0 mm 1 mps 697 mmHg 78%
    23:00 +16°C° 0 mm 1 mps 697 mmHg 80%
    Show more